Location: Boquerón
(10.0687°N, 67.9212°W)
Time: 10:18:45
(UTC+00:00)

ATLAS 3B R/B - Pass Details

Date: 29 May 2024
Orbit: 942 x 1252 km, 63.8° (Epoch: 16 June)

Event Time Altitude Azimuth Distance (km) Brightness Sun altitude
Rises 23:04:03 0° 3° (N) 4,181 6.1 -4.2°
Reaches altitude 10° 23:08:07 10° 22° (NNE) 3,194 5.2 -5.1°
Maximum altitude 23:12:50 17° 60° (ENE) 2,646 4.4 -6.2°
Drops below altitude 10° 23:17:24 10° 99° (E) 3,099 4.5 -7.2°
Enters shadow 23:18:15 - 104° (ESE) 3,273 4.6 -7.4°
